Location: Newark
(25.4800°N, 85.7200°E)
Time: 18:50:01
(UTC+00:00)

Explorer 11/Cluster Stage 4 - Pass Details

Date: 28 August 2019
Orbit: 467 x 1260 km, 28.8° (Epoch: 15 September)

Event Time Altitude Azimuth Distance (km) Brightness Sun altitude
Rises 09:00:38 0° 279° (W) 4,197 10.9 48.5°
Reaches altitude 10° 09:03:59 10° 270° (W) 3,200 10.6 47.8°
Maximum altitude 09:10:55 32° 211° (SSW) 1,873 9.5 46.3°
Drops below altitude 10° 09:17:09 10° 151° (SSE) 2,847 9.4 44.9°
Sets 09:19:58 0° 141° (SE) 3,678 9.8 44.3°
